IRIDIUM 161

Last updated on Tue Sep 22 2026 00:03:21 GMT+0000 (Coordinated Universal Time)

1 43478U 18047C 26264.40019896 .00000194 00000+0 51719-4 0 9993 2 43478 86.4470 48.2064 0002311 95.3983 264.7482 14.43279984439016
UTC large
Height (km)
Speed (km/s)
/
Latitude / Longitude
Inclination (degrees)
Orbital Period (minutes)
Azimuth
Elevation
Range (km)
Doppler Factor

Next 0 passes for location: London (51.5072 / 0.1276)

No passes found over London.
IRIDIUM 161